Granite Falls, MN

3:06 PM CST on December 14, 2019 (GMT -0600)
Granite Falls

Weather History for KGDB - October, 2019

Change the Weather History Date:

Tuesday, October 29, 2019

  Actual Average (KMVE) Record (KMVE)
Temperature  
Mean Temperature 28 °F -  
Max Temperature 36 °F 53 °F 75 °F (2004)
Min Temperature 19 °F 31 °F 19 °F (1972)
Degree Days  
Heating Degree Days 38    
Moisture  
Dew Point 18 °F    
Average Humidity 70    
Maximum Humidity 89    
Minimum Humidity 41    
Precipitation  
Precipitation 0.00 in - - ()
Sea Level Pressure  
Sea Level Pressure 30.28 in    
Wind  
Wind Speed 8 mph (West)    
Max Wind Speed 16 mph    
Max Gust Speed 20 mph    
Visibility 8 miles    
Events      
Averages and records for this station are not official NWS values.
T = Trace of Precipitation, MM = Missing Value Source: NWS Daily Summary

Daily Weather History Graph

Daily Weather History Graph

Search for Another Location

Airport or City:

Astronomy

Oct. 29, 2019 Rise Set
Actual Time 7:55 AM CDT 6:15 PM CDT
Civil Twilight 7:25 AM CDT 6:45 PM CDT
Nautical Twilight 6:51 AM CDT 7:19 PM CDT
Astronomical Twilight 6:17 AM CDT 7:53 PM CDT
Moon 9:33 AM CDT (10/29) 7:36 PM CDT (10/29)
Length of Visible Light 11h 19m
Length of Day
10h 19m
Waxing Crescent, 3% of the Moon is Illuminated
Oct 29
Waxing Crescent
Nov 4
First Quarter
Nov 12
Full
Nov 19
Last Quarter
Nov 26
New

Hourly Weather History & Observations

Time (CDT) Temp. Windchill Dew Point Humidity Pressure Visibility Wind Dir Wind Speed Gust Speed Precip Events Conditions
12:15 AM 25.5 °F 17.8 °F 21.9 °F 86% 30.14 in 5.0 mi South 6.9 mph - N/A   Clear
12:37 AM 25.5 °F 16.9 °F 21.9 °F 86% 30.14 in 7.0 mi South 8.1 mph - N/A   Clear
12:55 AM 25.7 °F 19.0 °F 21.9 °F 86% 30.15 in 10.0 mi SSW 5.8 mph - N/A   Clear
1:15 AM 25.3 °F 19.7 °F 21.4 °F 85% 30.14 in 7.0 mi SSW 4.6 mph - N/A   Clear
1:35 AM 23.7 °F 16.6 °F 20.3 °F 87% 30.15 in 7.0 mi SSW 5.8 mph - N/A   Clear
1:36 AM 23.5 °F 15.4 °F 20.3 °F 87% 30.15 in 7.0 mi SSW 6.9 mph - N/A   Clear
1:59 AM 23.5 °F 15.4 °F 19.9 °F 86% 30.14 in 5.0 mi SSW 6.9 mph - N/A   Clear
2:16 AM 25.0 °F 18.1 °F 21.2 °F 86% 30.14 in 7.0 mi SSW 5.8 mph - N/A   Clear
2:35 AM 23.9 °F 19.5 °F 20.5 °F 87% 30.14 in 7.0 mi SSW 3.5 mph - N/A   Scattered Clouds
2:55 AM 26.4 °F 18.9 °F 22.8 °F 86% 30.14 in 7.0 mi SSW 6.9 mph - N/A   Overcast
3:15 AM 27.5 °F 20.2 °F 23.0 °F 83% 30.15 in 10.0 mi SW 6.9 mph - N/A   Overcast
3:37 AM 26.8 °F 20.2 °F 22.6 °F 84% 30.15 in 7.0 mi SW 5.8 mph - N/A   Scattered Clouds
3:56 AM 26.4 °F 18.0 °F 22.5 °F 85% 30.16 in 10.0 mi West 8.1 mph - N/A   Clear
4:15 AM 25.2 °F 18.3 °F 21.6 °F 86% 30.17 in 7.0 mi West 5.8 mph - N/A   Clear
4:16 AM 25.0 °F 17.1 °F 21.4 °F 86% 30.17 in 10.0 mi West 6.9 mph - N/A   Clear
4:35 AM 25.9 °F 19.2 °F 22.5 °F 87% 30.18 in 10.0 mi WNW 5.8 mph - N/A   Mostly Cloudy
4:36 AM 26.1 °F 19.4 °F 22.6 °F 87% 30.18 in 10.0 mi WNW 5.8 mph - N/A   Mostly Cloudy
4:58 AM 26.6 °F 21.2 °F 23.0 °F 86% 30.19 in 7.0 mi WNW 4.6 mph - N/A   Overcast
5:35 AM 25.0 °F 18.1 °F 21.0 °F 85% 30.19 in 10.0 mi NW 5.8 mph - N/A   Scattered Clouds
5:55 AM 24.6 °F 16.7 °F 20.3 °F 84% 30.20 in 10.0 mi WNW 6.9 mph - N/A   Clear
5:56 AM 24.6 °F 16.7 °F 20.3 °F 84% 30.20 in 10.0 mi WNW 6.9 mph - N/A   Clear
6:15 AM 23.0 °F 15.8 °F 19.4 °F 86% 30.21 in 5.0 mi West 5.8 mph - N/A   Clear
6:20 AM 22.8 °F 14.5 °F 19.4 °F 87% 30.21 in 5.0 mi West 6.9 mph - N/A   Clear
6:37 AM 22.6 °F 15.3 °F 19.9 °F 89% 30.22 in 10.0 mi West 5.8 mph - N/A   Scattered Clouds
6:55 AM 24.8 °F 17.9 °F 21.4 °F 87% 30.22 in 10.0 mi West 5.8 mph - N/A   Overcast
7:15 AM 26.1 °F 20.5 °F 22.6 °F 87% 30.23 in 7.0 mi West 4.6 mph - N/A   Overcast
7:16 AM 26.2 °F 20.7 °F 22.6 °F 86% 30.23 in 7.0 mi West 4.6 mph - N/A   Overcast
7:35 AM 26.6 °F 21.2 °F 22.6 °F 85% 30.23 in 10.0 mi West 4.6 mph - N/A   Overcast
7:36 AM 26.6 °F 21.2 °F 22.6 °F 85% 30.23 in 10.0 mi West 4.6 mph - N/A   Overcast
7:58 AM 27.1 °F 20.7 °F 23.0 °F 84% 30.24 in 5.0 mi West 5.8 mph - N/A   Overcast
8:17 AM 27.5 °F 21.1 °F 22.5 °F 81% 30.24 in 10.0 mi WNW 5.8 mph - N/A   Overcast
8:36 AM 27.7 °F 21.3 °F 22.6 °F 81% 30.26 in 5.0 mi West 5.8 mph - N/A   Haze
8:55 AM 28.2 °F 21.0 °F 23.2 °F 81% 30.27 in 7.0 mi West 6.9 mph - N/A   Overcast
8:56 AM 28.2 °F 20.2 °F 23.2 °F 81% 30.27 in 7.0 mi West 8.1 mph - N/A   Overcast
9:15 AM 29.1 °F 20.6 °F 22.8 °F 77% 30.28 in 10.0 mi WNW 9.2 mph - N/A   Overcast
9:37 AM 29.3 °F 19.6 °F 21.4 °F 72% 30.30 in 10.0 mi WNW 11.5 mph - N/A   Overcast
9:56 AM 29.8 °F 19.3 °F 20.5 °F 68% 30.30 in 7.0 mi WNW 13.8 mph - N/A   Scattered Clouds
10:15 AM 30.6 °F 20.2 °F 18.5 °F 61% 30.30 in 10.0 mi WNW 13.8 mph - N/A   Mostly Cloudy
10:16 AM 30.4 °F 20.0 °F 18.5 °F 61% 30.30 in 10.0 mi NW 13.8 mph - N/A   Mostly Cloudy
10:35 AM 30.7 °F 20.9 °F 18.7 °F 61% 30.30 in 10.0 mi NW 12.7 mph - N/A   Overcast
10:59 AM 31.6 °F 22.1 °F 17.2 °F 55% 30.31 in 7.0 mi WNW 12.7 mph 18.4 mph N/A   Overcast
11:16 AM 32.0 °F 23.0 °F 18.0 °F 56% 30.32 in 10.0 mi WNW 11.5 mph - N/A   Overcast
11:36 AM 32.4 °F 22.5 °F 17.2 °F 54% 30.32 in 10.0 mi West 13.8 mph 18.4 mph N/A   Mostly Cloudy
11:55 AM 33.4 °F 23.9 °F 17.6 °F 52% 30.33 in 7.0 mi West 13.8 mph - N/A   Scattered Clouds
11:56 AM 33.6 °F 24.1 °F 17.6 °F 52% 30.33 in 7.0 mi West 13.8 mph - N/A   Scattered Clouds
12:15 PM 33.3 °F 24.1 °F 17.2 °F 52% 30.32 in 10.0 mi WNW 12.7 mph - N/A   Scattered Clouds
12:20 PM 33.8 °F 24.8 °F 17.4 °F 51% 30.32 in 10.0 mi West 12.7 mph - N/A   Scattered Clouds
12:38 PM 34.5 °F 24.8 °F 17.1 °F 49% 30.33 in 7.0 mi West 15.0 mph 19.6 mph N/A   Clear
1:15 PM 34.9 °F 24.9 °F 17.1 °F 48% 30.32 in 7.0 mi WNW 16.1 mph - N/A   Clear
1:16 PM 34.9 °F 25.7 °F 17.1 °F 48% 30.32 in 7.0 mi WNW 13.8 mph 18.4 mph N/A   Clear
1:36 PM 35.6 °F 26.6 °F 16.7 °F 46% 30.31 in 7.0 mi WNW 13.8 mph 19.6 mph N/A   Clear
2:35 PM 36.5 °F 28.2 °F 18.1 °F 47% 30.29 in 7.0 mi WNW 12.7 mph - N/A   Clear
2:55 PM 36.5 °F 27.4 °F 16.5 °F 44% 30.30 in 10.0 mi WNW 15.0 mph - N/A   Clear
2:56 PM 36.5 °F 28.2 °F 16.3 °F 44% 30.30 in 10.0 mi WNW 12.7 mph 17.3 mph N/A   Clear
3:15 PM 36.5 °F 30.3 °F 15.3 °F 42% 30.29 in 7.0 mi WNW 8.1 mph - N/A   Clear
3:20 PM 36.5 °F 29.2 °F 15.6 °F 43% 30.29 in 7.0 mi West 10.4 mph - N/A   Clear
3:37 PM 36.5 °F 28.2 °F 15.3 °F 42% 30.30 in 7.0 mi West 12.7 mph 17.3 mph N/A   Clear
3:55 PM 36.5 °F 29.2 °F 16.2 °F 44% 30.30 in 10.0 mi West 10.4 mph - N/A   Clear
4:15 PM 36.5 °F 28.7 °F 14.7 °F 41% 30.30 in 5.0 mi WNW 11.5 mph 16.1 mph N/A   Haze
4:35 PM 35.6 °F 28.0 °F 14.4 °F 42% 30.31 in 10.0 mi West 10.4 mph - N/A   Clear
4:36 PM 35.6 °F 28.0 °F 14.2 °F 42% 30.31 in 10.0 mi West 10.4 mph - N/A   Clear
4:59 PM 35.6 °F 28.0 °F 14.9 °F 43% 30.31 in 10.0 mi West 10.4 mph - N/A   Clear
5:17 PM 34.7 °F 26.4 °F 13.6 °F 42% 30.31 in 5.0 mi West 11.5 mph 16.1 mph N/A   Haze
5:36 PM 33.3 °F 26.4 °F 12.9 °F 43% 30.31 in 7.0 mi West 8.1 mph - N/A   Clear
5:55 PM 32.0 °F 26.4 °F 14.0 °F 48% 30.31 in 7.0 mi West 5.8 mph - N/A   Clear
5:56 PM 32.0 °F 26.4 °F 14.4 °F 48% 30.32 in 7.0 mi West 5.8 mph - N/A   Clear
6:15 PM 30.0 °F 24.1 °F 15.6 °F 55% 30.32 in 10.0 mi West 5.8 mph - N/A   Clear
6:19 PM 30.0 °F 24.1 °F 15.6 °F 55% 30.32 in 7.0 mi West 5.8 mph - N/A   Clear
6:37 PM 28.4 °F 22.2 °F 16.7 °F 62% 30.32 in 10.0 mi West 5.8 mph - N/A   Clear
6:56 PM 27.1 °F 20.7 °F 16.7 °F 65% 30.33 in 7.0 mi West 5.8 mph - N/A   Clear
7:15 PM 25.3 °F 18.5 °F 17.1 °F 71% 30.34 in 7.0 mi WSW 5.8 mph - N/A   Clear
7:16 PM 25.2 °F 18.3 °F 17.2 °F 72% 30.34 in 7.0 mi West 5.8 mph - N/A   Clear
7:35 PM 23.9 °F 15.8 °F 16.7 °F 74% 30.34 in 5.0 mi West 6.9 mph - N/A   Haze
7:36 PM 23.9 °F 15.8 °F 16.7 °F 74% 30.34 in 5.0 mi West 6.9 mph - N/A   Haze
7:59 PM 24.1 °F 17.0 °F 16.5 °F 73% 30.34 in 7.0 mi West 5.8 mph - N/A   Clear
8:16 PM 23.7 °F 15.6 °F 16.7 °F 75% 30.35 in 7.0 mi WSW 6.9 mph - N/A   Clear
8:36 PM 23.2 °F 14.1 °F 16.7 °F 76% 30.36 in 7.0 mi WSW 8.1 mph - N/A   Clear
8:55 PM 23.5 °F 13.7 °F 16.7 °F 75% 30.37 in 7.0 mi WSW 9.2 mph - N/A   Clear
8:56 PM 23.5 °F 13.7 °F 16.7 °F 75% 30.37 in 7.0 mi WSW 9.2 mph - N/A   Clear
9:15 PM 23.0 °F 15.8 °F 16.5 °F 76% 30.37 in 10.0 mi WSW 5.8 mph - N/A   Clear
9:19 PM 22.8 °F 14.5 °F 16.5 °F 77% 30.37 in 10.0 mi WSW 6.9 mph - N/A   Clear
9:38 PM 21.7 °F 12.3 °F 16.0 °F 78% 30.38 in 5.0 mi WSW 8.1 mph - N/A   Haze
9:55 PM 21.4 °F 12.8 °F 16.5 °F 82% 30.38 in 7.0 mi WSW 6.9 mph - N/A   Clear
10:15 PM 20.1 °F 12.3 °F 15.8 °F 83% 30.38 in 10.0 mi WSW 5.8 mph - N/A   Clear
10:16 PM 20.1 °F 12.3 °F 15.8 °F 83% 30.38 in 10.0 mi WSW 5.8 mph - N/A   Clear
10:35 PM 19.6 °F 10.6 °F 15.3 °F 83% 30.38 in 10.0 mi WSW 6.9 mph - N/A   Clear
10:58 PM 20.3 °F 10.6 °F 15.8 °F 83% 30.39 in 7.0 mi WSW 8.1 mph - N/A   Clear
11:16 PM 20.3 °F 10.6 °F 15.6 °F 82% 30.38 in 10.0 mi WSW 8.1 mph - N/A   Clear
11:35 PM 19.9 °F 11.1 °F 15.3 °F 82% 30.39 in 7.0 mi WSW 6.9 mph - N/A   Clear
11:36 PM 19.9 °F 10.1 °F 15.3 °F 82% 30.39 in 7.0 mi WSW 8.1 mph - N/A   Clear
11:55 PM 20.1 °F 11.3 °F 15.8 °F 83% 30.39 in 7.0 mi WSW 6.9 mph - N/A   Clear
11:56 PM 20.1 °F 12.3 °F 15.6 °F 83% 30.39 in 7.0 mi WSW 5.8 mph - N/A   Clear